Regional Weather Roundup
Issued by NWS

Home | Current Version | Previous Version | Graphics & Text | Print | Product List | Glossary Off
Versions: 1 2 3 4 5 6 7 8 9 10 11 12 13 14 15 16 17 18 19 20 21 22 23 24 25 26 27 28 29 30 31 32 33 34 35 36 37 38 39 40 41 42 43 44 45 46 47 48 49 50

000
ASUS43 KMKX 220510
RWRWI

WISCONSIN REGIONAL WEATHER ROUNDUP
NATIONAL WEATHER SERVICE MILWAUKEE/SULLIVAN WI
1100 PM CST SUN JAN 21 2018

NOTE: "FAIR" INDICATES FEW OR NO CLOUDS BELOW 12,000 FEET WITH NO
SIGNIFICANT WEATHER AND/OR OBSTRUCTIONS TO VISIBILITY.

WIZ001-002-006>008-014>016-023>028-220600-
NORTHWEST WISCONSIN

CITY           SKY/WX    TMP DP  RH WIND       PRES   REMARKS
SUPERIOR ARPT  CLOUDY    31  31 100 E16G24    30.07S WCI  20
ASHLAND        FOG       30  30 100 NE15G23   30.06S VSB 3/4 WCI  19
HAYWARD        CLOUDY    31  28  89 NE9       29.99F WCI  23
SIREN          CLOUDY    31  28  89 NE9       30.00S WCI  23
CUMBERLAND     CLOUDY    32  28  86 N7        29.97S WCI  26
RICE LAKE      FAIR      34  30  85 N9        29.98R WCI  26
CHETEK         CLOUDY    36  30  80 NE5       29.95S WCI  32
LADYSMITH      CLOUDY    35  31  83 N9        29.97F WCI  28
EAU CLAIRE     CLOUDY    37  30  75 NE10      29.92F WCI  30
MENOMONIE      CLOUDY    38  31  77 NE8       29.93S WCI  32
NEW RICHMOND   CLOUDY    35  28  76 NE7       29.95S WCI  29
OSCEOLA        CLOUDY    35  29  79 N8        29.99F WCI  29
$$

WIZ003>005-009-010-017-018-220600-
NORTH CENTRAL WISCONSIN

CITY           SKY/WX    TMP DP  RH WIND       PRES   REMARKS
MANITOWISH WTR CLOUDY    30  30 100 NE5       29.99R WCI  25
ARBOR VITAE    CLOUDY    32  30  92 NE3       29.97F
WOODRUFF       CLOUDY    32  30  92 NE3       29.97F
RHINELANDER    CLOUDY    34  31  88 NE6       29.97S WCI  29
EAGLE RIVER    CLOUDY    32  31  96 NE7       29.97F WCI  25
LAND O LAKES   CLOUDY    32  31  98 NE5       30.00F FOG     WCI  27
PHILLIPS       CLOUDY    32  30  92 NE5       29.96S WCI  28
TOMAHAWK       CLOUDY    33  29  85 NE3       29.96F
MEDFORD        CLOUDY    35  30  83 NE9       29.93R WCI  27
MERRILL        CLOUDY    36  31  83 NE5       29.95F WCI  32
$$

WIZ029-030-035-036-043>047-220600-
CENTRAL WISCONSIN

CITY           SKY/WX    TMP DP  RH WIND       PRES   REMARKS
WAUSAU         CLOUDY    36  30  79 E10       29.92S WCI  28
MOSINEE        NOT AVBL
MARSHFIELD     CLOUDY    36  31  82 E14       29.90F WCI  27
STEVENS POINT  CLOUDY    34  31  90 E9        29.94R WCI  26
WAUPACA        CLOUDY    37  33  86 NE3       29.94F FOG
WAUTOMA        MIX PCPN  35  34  96 NE9       29.92F FOG     WCI  28
WISC RAPIDS    CLOUDY    37  31  78 E10       29.92F WCI  30
CAMP DOUGLAS   LGT RAIN  37  36  99 NE5       29.89S FOG     WCI  33
$$

WIZ011>013-019>022-031-037>040-048>050-220600-
NORTHEAST WISCONSIN

CITY           SKY/WX    TMP DP  RH WIND       PRES   REMARKS
ANTIGO         CLOUDY    34  30  86 E8        29.95S WCI  27
SHAWANO        CLOUDY    36  32  85 NE9       29.97F WCI  29
OCONTO         CLOUDY    33  32  96 NE6       29.99F WCI  28
STURGEON BAY   LGT RAIN  34  33  96 NE6       29.99F VSB 1/4 WCI  29
GREEN BAY      CLOUDY    33  31  92 NE12      29.96F FOG     WCI  24
MANITOWOC      FOG       36  36 100 NE7       29.96S VSB 3/4 WCI  30
APPLETON       FOG       34  34 100 NE7       29.93S VSB 3/4 WCI  28
CLINTONVILLE   CLOUDY    34  32  93 NE8       29.95F FOG     WCI  27
OSHKOSH        LGT RAIN  35  34  96 NE10      29.92F VSB 1/2 WCI  27
$$

WIZ032>034-041-042-053>061-220600-
SOUTHWEST WISCONSIN

CITY           SKY/WX    TMP DP  RH WIND       PRES   REMARKS
LA CROSSE      LGT RAIN  41  34  76 E12G22    29.86F
SPARTA         CLOUDY    37  35  92 NE8       29.89F WCI  30
VIROQUA        CLOUDY    36  36 100 NE12      29.84S WCI  28
BOSCOBEL       CLOUDY    38  37  97 NE5       29.84F FOG     WCI  34
PRAIRIE DU CHI CLOUDY    38  37  94 NE5       29.81F FOG     WCI  34
PLATTEVILLE    CLOUDY    37  37 100 NE13      29.80F WCI  29
$$

WIZ056-057-062-063-064-067-068-220600-
SOUTH CENTRAL WISCONSIN

CITY           SKY/WX    TMP DP  RH WIND       PRES   REMARKS
REEDSBURG      CLOUDY    36  36 100 E7        29.86F FOG     WCI  30
BARABOO/DELLS  FOG       35  34  98 NE8       29.87S VSB 1/2 WCI  28
LONE ROCK      CLOUDY    38  38 100 E9        29.85F FOG     WCI  31
MINERAL POINT  LGT RAIN  37  37 100 E13       29.80F WCI  29
MADISON        DRIZZLE   36  36 100 E13       29.86F FOG     WCI  27
MIDDLETON      CLOUDY    38  38 100 NE6       29.85F WCI  33
WATERTOWN      CLOUDY    36  36 100 E8        29.86F WCI  29
MONROE         DRZL/FOG  36  36 100 NE9       29.80F VSB 1/4 WCI  29
JANESVILLE     DRIZZLE   37  37 100 NE8       29.83F WCI  31
$$

WIZ051-052-058>065-066-070>072-220600-
SOUTHEAST WISCONSIN

CITY           SKY/WX    TMP DP  RH WIND       PRES   REMARKS
MILWAUKEE      FOG       37  37 100 NE8       29.90R VSB 1/4 WCI  31
WAUKESHA       FOG       34  34 100 E9        29.90S VSB 3/4 WCI  26
MILWAUKEE/TIMM LGT RAIN  36  34  93 E6        29.91R WCI  31
RACINE         LGT RAIN  38  38 100 NE8       29.91R VSB 1/4 WCI  32
BURLINGTON     CLOUDY    37  36  97 NE6       29.86F FOG     WCI  32
KENOSHA        FOG       38  38 100 NE9       29.87F VSB 1/2 WCI  31
FOND DU LAC    LGT RAIN  36  34  92 NE10      29.91F FOG     WCI  28
SHEBOYGAN      FOG       35  35 100 NE14      29.92F VSB 1/2 WCI  26
WEST BEND      DRIZZLE   34  34 100 E8        29.90F WCI  27
JUNEAU         CLOUDY    35  35  98 NE8       29.89S WCI  29
$$

LSZ147-162-220600-
LAKE SUPERIOR

STATION/POSITION TIME  TEMP    WIND        PRES    WAVE
                       AIR SEA DIR/SP/G            HT/PER
                 (UTC) (F)     (DEG/KT/KT) (MB)    (FT/S)
DEVILS ISLAND    0500   28      60/ 23/ 25 1020.2R
SAXON HARBOR     0440   31      60/ 12/ 17 1017.3S
$$

LMZ867-665-643>646-220600-
LAKE MICHIGAN

STATION/POSITION TIME  TEMP    WIND        PRES    WAVE
                       AIR SEA DIR/SP/G            HT/PER
                 (UTC) (F)     (DEG/KT/KT) (MB)    (FT/S)
NORTHPORT PIER   0502   33     360/  3/  6 1016.6
KEWAUNEE LAKESHO 0442   34      30/  8/ 11 1014.3F
SHEBOYGAN LAKESH 0500   36      40/ 14/ 15 1013.7F
PORT WASHINGTON  0440   36      40/ 12/ 14 1013.9F
MILWAUKEE LAKESH 0450   35      50/  9/ 10   N/A
KENOSHA   LAKESH 0500   35      10/  7/  8 1011.9
$$

TC  - TEMPERATURE IN CELSIUS
VSB - VISIBILITY IN STATUTE MILES
WCI - WIND CHILL INDEX
HX  - HEAT INDEX





USA.gov is the U.S. government's official web portal to all federal, state and local government web resources and services.